Home   Weather   Bertoua   Past weeks
Flag for Cameroon

Past Weather in Bertoua, Cameroon — Yesterday and Last 2 Weeks

Now
68 °F

Passing clouds.


Feels Like: 68 °F
Forecast: 85 / 67 °F
Wind: 3 mph from Northwest

Location: Yaounde Airport

Current Time: Oct 23, 2019 at 10:11:05 pm

Latest Report: Oct 23, 2019 at 9:00 pm


Visibility: N/A

Pressure: 29.98 "Hg (27.74 "Hg at 665m altitude)

Humidity: 100%

Dew Point: 68 °F

Location of BertouaLocation

Past Weather in Bertoua — Graph

°F

Bertoua Temperature Yesterday

Maximum temperature yesterday: 86 °F (at 3:00 pm)
Minimum temperature yesterday: 68 °F (at 2:00 am)
Average temperature yesterday: 74 °F

High & Low Weather Summary for the Past Weeks

 TemperatureHumidityPressure
High86 °F (Oct 14, 3:00 pm)100% (Oct 9, 1:00 am)30.12 "Hg (Oct 9, 1:00 am)
Low68 °F (Oct 9, 4:00 am)62% (Oct 12, 3:00 pm)29.86 "Hg (Oct 22, 3:00 pm)
Average74 °F91%30.00 "Hg
* Reported Oct 8 8:00 pm — Oct 23 8:00 pm, Bertoua. Weather by CustomWeather, © 2019

Note: Actual official high and low records may vary slightly from our data, if they occured in-between our weather recording intervals... More about our weather records

Advertising

Bertoua Weather History for the Previous 24 Hours

Scroll right to see more
 ConditionsComfort  
Time TempWeatherWind HumidityBarometerVisibility
8:00 pm
Wed, Oct 23
68 °FThunderstorms. Passing clouds.5 mph100%29.98 "Hg4 mi
7:00 pm68 °FThunderstorms. Passing clouds.5 mph100%29.98 "Hg4 mi
6:00 pm70 °FThunderstorms. Passing clouds.13 mph100%29.98 "Hg4 mi
5:00 pm73 °FThunderstorms. Partly sunny.12 mph94%29.95 "Hg4 mi
4:00 pm73 °FThunderstorms. Partly sunny.9 mph89%29.92 "Hg5 mi
3:00 pm75 °FPartly sunny.12 mph83%29.92 "Hg5 mi
2:00 pm86 °FPartly sunny.5 mph62%29.89 "Hg5 mi
1:00 pm84 °FPartly sunny.3 mph62%29.92 "Hg5 mi
12:00 pm81 °FPartly sunny.3 mph74%29.98 "Hg5 mi
11:00 am77 °FPartly sunny.3 mph83%30.01 "Hg5 mi
10:00 am73 °FPartly sunny.3 mph94%30.04 "Hg5 mi
9:00 am72 °FPartly sunny.2 mph100%30.04 "Hg4 mi
8:00 am70 °FFog.5 mph100%30.01 "Hg2 mi
7:00 am70 °FFog.1 mph100%29.95 "Hg1 mi
6:00 am70 °FBroken clouds.1 mph100%29.95 "Hg4 mi
5:00 am70 °FPassing clouds.3 mph100%29.92 "HgN/A
4:00 am70 °FLight rain. Partly cloudy.2 mph100%29.92 "Hg4 mi
3:00 am70 °FLight rain. Passing clouds.3 mph100%29.95 "Hg4 mi
2:00 am70 °FLight rain. Passing clouds.1 mph100%29.95 "Hg4 mi
1:00 am70 °FLight rain. Passing clouds.3 mph100%29.95 "Hg4 mi
12:00 am70 °FThunderstorms. Passing clouds.3 mph100%29.98 "Hg4 mi
11:00 pm
Tue, Oct 22
70 °FThunderstorms. Passing clouds.3 mph100%30.01 "Hg4 mi
10:00 pm70 °FThunderstorms. Passing clouds.1 mph100%30.01 "Hg4 mi
Weather by CustomWeather, © 2019

See weather overview